| time (UTC) | temp F | wind direction | speed MPH | gust MPH | rain 1hr in | rain 24hr in | rain mn in | humidity % | barometer mb |
| 20260510231106 | 55 | 11 | 0.0 | 5.0 | 0.00 | 0.00 | 0.00 | 40 | 1018.9 |
| 20260510230601 | 56 | 355 | 3.0 | 9.0 | 0.00 | 0.00 | 0.00 | 40 | 1019.0 |
| 20260510230058 | 56 | 351 | 4.0 | 9.0 | 0.00 | 0.00 | 0.00 | 39 | 1018.7 |
| 20260510225554 | 56 | 11 | 0.0 | 4.0 | 0.00 | 0.00 | 0.00 | 39 | 1018.9 |
| 20260510225050 | 55 | 64 | 0.0 | 6.0 | 0.00 | 0.00 | 0.00 | 40 | 1018.9 |
| 20260510224546 | 56 | 101 | 2.0 | 7.0 | 0.00 | 0.00 | 0.00 | 39 | 1019.0 |
| 20260510224043 | 57 | 295 | 1.0 | 6.0 | 0.00 | 0.00 | 0.00 | 40 | 1018.9 |
| 20260510223541 | 57 | 52 | 2.0 | 8.0 | 0.00 | 0.00 | 0.00 | 38 | 1018.8 |
| 20260510223038 | 56 | 159 | 2.0 | 5.0 | 0.00 | 0.00 | 0.00 | 38 | 1018.8 |
| 20260510222535 | 56 | 203 | 4.0 | 5.0 | 0.00 | 0.00 | 0.00 | 38 | 1018.9 |
| 20260510222031 | 57 | 116 | 3.0 | 5.0 | 0.00 | 0.00 | 0.00 | 38 | 1018.7 |
| 20260510221527 | 56 | 158 | 3.0 | 6.0 | 0.00 | 0.00 | 0.00 | 37 | 1018.7 |
| 20260510221023 | 57 | 4 | 1.0 | 6.0 | 0.00 | 0.00 | 0.00 | 38 | 1018.7 |
| 20260510220520 | 56 | 157 | 3.0 | 8.0 | 0.00 | 0.00 | 0.00 | 37 | 1018.6 |
| 20260510220016 | 57 | 72 | 2.0 | 5.0 | 0.00 | 0.00 | 0.00 | 38 | 1018.7 |
| 20260510215514 | 57 | 147 | 4.0 | 5.0 | 0.00 | 0.00 | 0.00 | 36 | 1018.6 |
| 20260510215011 | 58 | 10 | 1.0 | 7.0 | 0.00 | 0.00 | 0.00 | 38 | 1018.5 |
| 20260510214503 | 57 | 122 | 4.0 | 7.0 | 0.00 | 0.00 | 0.00 | 38 | 1018.5 |
| 20260510213959 | 58 | 186 | 4.0 | 8.0 | 0.00 | 0.00 | 0.00 | 35 | 1018.4 |
| 20260510213456 | 58 | 330 | 5.0 | 9.0 | 0.00 | 0.00 | 0.00 | 35 | 1018.3 |
| 20260510212952 | 57 | 32 | 4.0 | 7.0 | 0.00 | 0.00 | 0.00 | 37 | 1018.3 |
| 20260510212449 | 57 | 311 | 3.0 | 7.0 | 0.00 | 0.00 | 0.00 | 36 | 1018.3 |
| 20260510211945 | 57 | 302 | 2.0 | 6.0 | 0.00 | 0.00 | 0.00 | 36 | 1018.1 |
| 20260510211443 | 58 | 338 | 3.0 | 9.0 | 0.00 | 0.00 | 0.00 | 36 | 1018.2 |
| 20260510210942 | 58 | 304 | 0.0 | 9.0 | 0.00 | 0.00 | 0.00 | 34 | 1018.1 |
| 20260510210438 | 57 | 10 | 2.0 | 7.0 | 0.00 | 0.00 | 0.00 | 35 | 1018.1 |
| 20260510205932 | 57 | 48 | 1.0 | 5.0 | 0.00 | 0.00 | 0.00 | 39 | 1017.9 |
| 20260510205427 | 57 | 320 | 0.0 | 6.0 | 0.00 | 0.00 | 0.00 | 36 | 1018.0 |
| 20260510204924 | 57 | 68 | 2.0 | 6.0 | 0.00 | 0.00 | 0.00 | 38 | 1018.0 |
| 20260510204420 | 57 | 225 | 3.0 | 6.0 | 0.00 | 0.00 | 0.00 | 37 | 1018.2 |
| 20260510203917 | 57 | 75 | 0.0 | 5.0 | 0.00 | 0.00 | 0.00 | 35 | 1018.1 |
| 20260510203414 | 57 | 325 | 2.0 | 5.0 | 0.00 | 0.00 | 0.00 | 36 | 1018.2 |
| 20260510202914 | 57 | 126 | 2.0 | 5.0 | 0.00 | 0.00 | 0.00 | 35 | 1018.4 |
| 20260510202410 | 58 | 338 | 7.0 | 7.0 | 0.00 | 0.00 | 0.00 | 36 | 1018.3 |
| 20260510201906 | 58 | 29 | 2.0 | 10.0 | 0.00 | 0.00 | 0.00 | 34 | 1018.1 |
| 20260510201404 | 59 | 329 | 2.0 | 6.0 | 0.00 | 0.00 | 0.00 | 34 | 1018.2 |
| 20260510200900 | 58 | 196 | 3.0 | 6.0 | 0.00 | 0.00 | 0.00 | 36 | 1018.3 |
| 20260510200359 | 59 | 50 | 2.0 | 7.0 | 0.00 | 0.00 | 0.00 | 36 | 1018.3 |
| 20260510195854 | 60 | 13 | 3.0 | 6.0 | 0.00 | 0.00 | 0.00 | 35 | 1018.3 |
| 20260510195351 | 58 | 6 | 0.0 | 7.0 | 0.00 | 0.00 | 0.00 | 37 | 1018.5 |
| 20260510194846 | 58 | 343 | 3.0 | 7.0 | 0.00 | 0.00 | 0.00 | 35 | 1018.5 |
| 20260510194343 | 58 | 105 | 3.0 | 7.0 | 0.00 | 0.00 | 0.00 | 34 | 1018.5 |
| 20260510193838 | 59 | 46 | 1.0 | 6.0 | 0.00 | 0.00 | 0.00 | 35 | 1018.5 |
| 20260510193333 | 58 | 334 | 2.0 | 5.0 | 0.00 | 0.00 | 0.00 | 34 | 1018.6 |
| 20260510192824 | 57 | 333 | 2.0 | 5.0 | 0.00 | 0.00 | 0.00 | 35 | 1018.4 |
| 20260510192319 | 59 | 331 | 3.0 | 7.0 | 0.00 | 0.00 | 0.00 | 34 | 1018.8 |
| 20260510191816 | 57 | 30 | 5.0 | 13.0 | 0.00 | 0.00 | 0.00 | 37 | 1018.5 |
| 20260510191312 | 59 | 353 | 4.0 | 5.0 | 0.00 | 0.00 | 0.00 | 38 | 1018.6 |
| 20260510190810 | 58 | 95 | 5.0 | 5.0 | 0.00 | 0.00 | 0.00 | 34 | 1018.7 |
| 20260510190308 | 57 | 22 | 3.0 | 6.0 | 0.00 | 0.00 | 0.00 | 36 | 1018.7 |
| 20260510185803 | 58 | 52 | 2.0 | 7.0 | 0.00 | 0.00 | 0.00 | 35 | 1018.8 |
| 20260510185301 | 57 | 48 | 2.0 | 8.0 | 0.00 | 0.00 | 0.00 | 37 | 1018.7 |
| 20260510184758 | 58 | 180 | 3.0 | 8.0 | 0.00 | 0.00 | 0.00 | 35 | 1018.8 |
| 20260510184254 | 57 | 351 | 2.0 | 5.0 | 0.00 | 0.00 | 0.00 | 36 | 1018.5 |
| 20260510183748 | 59 | 309 | 5.0 | 8.0 | 0.00 | 0.00 | 0.00 | 33 | 1018.5 |
| 20260510183244 | 59 | 45 | 2.0 | 8.0 | 0.00 | 0.00 | 0.00 | 36 | 1018.5 |
| 20260510182740 | 57 | 7 | 5.0 | 9.0 | 0.00 | 0.00 | 0.00 | 36 | 1018.4 |
| 20260510182236 | 59 | 11 | 5.0 | 6.0 | 0.00 | 0.00 | 0.00 | 37 | 1018.2 |
| 20260510181733 | 55 | 150 | 2.0 | 6.0 | 0.00 | 0.00 | 0.00 | 38 | 1018.3 |
| 20260510181231 | 56 | 184 | 2.0 | 10.0 | 0.00 | 0.00 | 0.00 | 36 | 1018.2 |
| 20260510180726 | 57 | 59 | 3.0 | 5.0 | 0.00 | 0.00 | 0.00 | 34 | 1018.3 |
| 20260510180224 | 59 | 219 | 0.0 | 4.0 | 0.00 | 0.00 | 0.00 | 38 | 1018.3 |
| 20260510175720 | 59 | 17 | 2.0 | 6.0 | 0.00 | 0.00 | 0.00 | 36 | 1018.2 |
| 20260510175216 | 59 | 158 | 2.0 | 6.0 | 0.00 | 0.00 | 0.00 | 36 | 1018.3 |
| 20260510174713 | 58 | 34 | 4.0 | 7.0 | 0.00 | 0.00 | 0.00 | 36 | 1018.2 |
| 20260510174211 | 58 | 296 | 2.0 | 5.0 | 0.00 | 0.00 | 0.00 | 35 | 1018.3 |
| 20260510173706 | 60 | 114 | 2.0 | 5.0 | 0.00 | 0.00 | 0.00 | 32 | 1018.1 |
| 20260510173202 | 59 | 60 | 4.0 | 10.0 | 0.00 | 0.00 | 0.00 | 35 | 1018.3 |
| 20260510172657 | 59 | 24 | 2.0 | 5.0 | 0.00 | 0.00 | 0.00 | 36 | 1018.2 |
| 20260510172154 | 57 | 258 | 3.0 | 11.0 | 0.00 | 0.00 | 0.00 | 35 | 1018.4 |
| 20260510171651 | 56 | 316 | 5.0 | 13.0 | 0.00 | 0.00 | 0.00 | 35 | 1018.4 |
| 20260510171149 | 58 | 152 | 2.0 | 8.0 | 0.00 | 0.00 | 0.00 | 34 | 1018.3 |
| 20260510170644 | 57 | 10 | 2.0 | 7.0 | 0.00 | 0.00 | 0.00 | 35 | 1018.4 |
| 20260510170141 | 57 | 277 | 4.0 | 8.0 | 0.00 | 0.00 | 0.00 | 36 | 1018.4 |
| 20260510165637 | 57 | 36 | 4.0 | 7.0 | 0.00 | 0.00 | 0.00 | 37 | 1018.4 |
| 20260510165133 | 57 | 1 | 3.0 | 5.0 | 0.00 | 0.00 | 0.00 | 43 | 1018.4 |
| 20260510164631 | 57 | 181 | 5.0 | 8.0 | 0.00 | 0.00 | 0.00 | 38 | 1018.6 |
| 20260510164127 | 57 | 87 | 3.0 | 4.0 | 0.00 | 0.00 | 0.00 | 37 | 1018.4 |
| 20260510163622 | 56 | 17 | 3.0 | 5.0 | 0.00 | 0.00 | 0.00 | 37 | 1018.4 |
| 20260510163119 | 55 | 345 | 7.0 | 12.0 | 0.00 | 0.00 | 0.00 | 38 | 1018.4 |
| 20260510162614 | 54 | 313 | 3.0 | 13.0 | 0.00 | 0.00 | 0.00 | 42 | 1018.4 |
| 20260510162110 | 55 | 17 | 4.0 | 8.0 | 0.00 | 0.00 | 0.00 | 39 | 1018.6 |
| 20260510161606 | 55 | 56 | 3.0 | 8.0 | 0.00 | 0.00 | 0.00 | 40 | 1018.3 |
| 20260510161104 | 55 | 321 | 6.0 | 6.0 | 0.00 | 0.00 | 0.00 | 41 | 1018.4 |
| 20260510160600 | 55 | 104 | 2.0 | 6.0 | 0.00 | 0.00 | 0.00 | 38 | 1018.5 |
| 20260510160100 | 54 | 35 | 0.0 | 6.0 | 0.00 | 0.00 | 0.00 | 42 | 1018.4 |
| 20260510155557 | 55 | 34 | 4.0 | 7.0 | 0.00 | 0.00 | 0.00 | 40 | 1018.3 |
| 20260510155053 | 54 | 312 | 4.0 | 9.0 | 0.00 | 0.00 | 0.00 | 38 | 1018.5 |
| 20260510154548 | 53 | 328 | 1.0 | 17.0 | 0.00 | 0.00 | 0.00 | 41 | 1018.4 |
| 20260510154044 | 53 | 335 | 5.0 | 10.0 | 0.00 | 0.00 | 0.00 | 39 | 1018.2 |
| 20260510153539 | 55 | 341 | 5.0 | 11.0 | 0.00 | 0.00 | 0.00 | 39 | 1018.2 |
| 20260510153036 | 54 | 14 | 4.0 | 7.0 | 0.00 | 0.00 | 0.00 | 40 | 1018.2 |
| 20260510152533 | 53 | 39 | 3.0 | 9.0 | 0.00 | 0.00 | 0.00 | 40 | 1017.9 |
| 20260510152030 | 52 | 20 | 3.0 | 11.0 | 0.00 | 0.00 | 0.00 | 44 | 1017.9 |
| 20260510151526 | 53 | 25 | 4.0 | 8.0 | 0.00 | 0.00 | 0.00 | 40 | 1018.0 |
| 20260510151024 | 53 | 143 | 2.0 | 7.0 | 0.00 | 0.00 | 0.00 | 42 | 1017.9 |
| 20260510150519 | 52 | 181 | 4.0 | 7.0 | 0.00 | 0.00 | 0.00 | 40 | 1017.8 |
| 20260510150015 | 51 | 39 | 4.0 | 8.0 | 0.00 | 0.00 | 0.00 | 45 | 1018.0 |
| 20260510145512 | 53 | 167 | 4.0 | 7.0 | 0.00 | 0.00 | 0.00 | 40 | 1017.8 |
| 20260510145008 | 52 | 36 | 3.0 | 6.0 | 0.00 | 0.00 | 0.00 | 42 | 1017.8 |
| 20260510144505 | 51 | 3 | 3.0 | 6.0 | 0.00 | 0.00 | 0.00 | 42 | 1017.6 |
| 20260510144000 | 51 | 330 | 0.0 | 7.0 | 0.00 | 0.00 | 0.00 | 46 | 1017.6 |
| 20260510143451 | 51 | 345 | 2.0 | 8.0 | 0.00 | 0.00 | 0.00 | 44 | 1017.7 |
| 20260510142948 | 51 | 348 | 4.0 | 8.0 | 0.00 | 0.00 | 0.00 | 45 | 1017.6 |
| 20260510142444 | 50 | 339 | 2.0 | 8.0 | 0.00 | 0.00 | 0.00 | 49 | 1017.4 |
| 20260510141935 | 50 | 33 | 6.0 | 10.0 | 0.00 | 0.00 | 0.00 | 44 | 1017.4 |
| 20260510141432 | 49 | 355 | 2.0 | 6.0 | 0.00 | 0.00 | 0.00 | 49 | 1017.5 |
| 20260510140929 | 49 | 346 | 3.0 | 4.0 | 0.00 | 0.00 | 0.00 | 49 | 1017.5 |
| 20260510140426 | 48 | 36 | 3.0 | 7.0 | 0.00 | 0.00 | 0.00 | 50 | 1017.4 |
| 20260510135924 | 49 | 84 | 2.0 | 5.0 | 0.00 | 0.00 | 0.00 | 47 | 1017.4 |
| 20260510135415 | 48 | 61 | 2.0 | 5.0 | 0.00 | 0.00 | 0.00 | 48 | 1017.5 |
| 20260510134913 | 48 | 31 | 3.0 | 6.0 | 0.00 | 0.00 | 0.00 | 49 | 1016.9 |
| 20260510134409 | 48 | 28 | 3.0 | 5.0 | 0.00 | 0.00 | 0.00 | 49 | 1017.4 |
| 20260510133905 | 47 | 121 | 2.0 | 3.0 | 0.00 | 0.00 | 0.00 | 51 | 1017.1 |
| 20260510133402 | 47 | 32 | 0.0 | 4.0 | 0.00 | 0.00 | 0.00 | 50 | 1017.4 |
| 20260510132857 | 47 | 28 | 3.0 | 5.0 | 0.00 | 0.00 | 0.00 | 46 | 1017.4 |
| 20260510132356 | 47 | 285 | 0.0 | 6.0 | 0.00 | 0.00 | 0.00 | 49 | 1017.1 |
| 20260510131852 | 48 | 319 | 4.0 | 5.0 | 0.00 | 0.00 | 0.00 | 52 | 1017.0 |
| 20260510131350 | 47 | 36 | 2.0 | 4.0 | 0.00 | 0.00 | 0.00 | 50 | 1017.0 |
| 20260510130846 | 46 | 53 | 3.0 | 4.0 | 0.00 | 0.00 | 0.00 | 51 | 1017.1 |
| 20260510130344 | 46 | 337 | 5.0 | 5.0 | 0.00 | 0.00 | 0.00 | 57 | 1017.0 |
| 20260510125840 | 46 | 0 | 1.0 | 3.0 | 0.00 | 0.00 | 0.00 | 56 | 1016.9 |
| 20260510125336 | 46 | 128 | 2.0 | 8.0 | 0.00 | 0.00 | 0.00 | 54 | 1017.0 |
| 20260510124834 | 47 | 345 | 1.0 | 3.0 | 0.00 | 0.00 | 0.00 | 54 | 1016.8 |
| 20260510124330 | 45 | 76 | 0.0 | 3.0 | 0.00 | 0.00 | 0.00 | 56 | 1016.9 |
| 20260510123826 | 45 | 346 | 3.0 | 5.0 | 0.00 | 0.00 | 0.00 | 57 | 1016.7 |
| 20260510123321 | 44 | 9 | 3.0 | 4.0 | 0.00 | 0.00 | 0.00 | 58 | 1016.6 |
| 20260510122818 | 44 | 357 | 1.0 | 4.0 | 0.00 | 0.00 | 0.00 | 59 | 1016.4 |
| 20260510122314 | 45 | 6 | 1.0 | 4.0 | 0.00 | 0.00 | 0.00 | 63 | 1016.6 |
| 20260510121811 | 44 | 58 | 0.0 | 3.0 | 0.00 | 0.00 | 0.00 | 64 | 1016.4 |
| 20260510121308 | 44 | 81 | 1.0 | 5.0 | 0.00 | 0.00 | 0.00 | 64 | 1016.4 |
| 20260510120805 | 43 | 48 | 0.0 | 2.0 | 0.00 | 0.00 | 0.00 | 67 | 1016.3 |
| 20260510120302 | 42 | 333 | 0.0 | 4.0 | 0.00 | 0.00 | 0.00 | 69 | 1016.4 |
| 20260510115757 | 41 | 159 | 0.0 | 2.0 | 0.00 | 0.00 | 0.00 | 73 | 1016.2 |
| 20260510115255 | 41 | 111 | 2.0 | 2.0 | 0.00 | 0.00 | 0.00 | 75 | 1016.1 |
| 20260510114749 | 40 | 118 | 1.0 | 2.0 | 0.00 | 0.00 | 0.00 | 75 | 1015.9 |
| 20260510114247 | 40 | 128 | 0.0 | 2.0 | 0.00 | 0.00 | 0.00 | 75 | 1016.1 |
| 20260510113742 | 39 | 131 | 1.0 | 2.0 | 0.00 | 0.00 | 0.00 | 77 | 1015.8 |
| 20260510113240 | 38 | 120 | 0.0 | 2.0 | 0.00 | 0.00 | 0.00 | 79 | 1015.9 |
| 20260510112736 | 38 | 103 | 0.0 | 1.0 | 0.00 | 0.00 | 0.00 | 80 | 1016.0 |
| 20260510112233 | 37 | 138 | 0.0 | 1.0 | 0.00 | 0.00 | 0.00 | 80 | 1015.9 |
| 20260510111728 | 37 | 112 | 0.0 | 2.0 | 0.00 | 0.00 | 0.00 | 80 | 1015.9 |
| 20260510111226 | 37 | 130 | 1.0 | 2.0 | 0.00 | 0.00 | 0.00 | 80 | 1015.9 |
| 20260510110725 | 37 | 113 | 1.0 | 1.0 | 0.00 | 0.00 | 0.00 | 79 | 1015.7 |
| 20260510110224 | 37 | 102 | 0.0 | 1.0 | 0.00 | 0.00 | 0.00 | 78 | 1015.8 |
| 20260510105723 | 37 | 108 | 1.0 | 2.0 | 0.00 | 0.00 | 0.00 | 79 | 1015.6 |
| 20260510105218 | 37 | 89 | 0.0 | 2.0 | 0.00 | 0.00 | 0.00 | 78 | 1015.4 |
| 20260510104715 | 37 | 89 | 0.0 | 2.0 | 0.00 | 0.00 | 0.00 | 78 | 1015.4 |
| 20260510104212 | 37 | 114 | 1.0 | 2.0 | 0.00 | 0.00 | 0.00 | 79 | 1015.3 |
| 20260510103708 | 37 | 106 | 2.0 | 2.0 | 0.00 | 0.00 | 0.00 | 79 | 1015.3 |
| 20260510103206 | 37 | 131 | 0.0 | 2.0 | 0.00 | 0.00 | 0.00 | 79 | 1014.9 |
| 20260510102700 | 37 | 81 | 0.0 | 2.0 | 0.00 | 0.00 | 0.00 | 78 | 1015.2 |
| 20260510102156 | 37 | 95 | 1.0 | 2.0 | 0.00 | 0.00 | 0.00 | 78 | 1015.0 |
| 20260510101654 | 37 | 102 | 1.0 | 2.0 | 0.00 | 0.00 | 0.00 | 77 | 1014.8 |
| 20260510101152 | 37 | 86 | 1.0 | 2.0 | 0.00 | 0.00 | 0.00 | 78 | 1015.1 |
| 20260510100653 | 37 | 99 | 0.0 | 2.0 | 0.00 | 0.00 | 0.00 | 77 | 1015.0 |
| 20260510100151 | 37 | 83 | 0.0 | 2.0 | 0.00 | 0.00 | 0.00 | 76 | 1014.9 |
| 20260510095646 | 38 | 109 | 0.0 | 2.0 | 0.00 | 0.00 | 0.00 | 76 | 1014.9 |
| 20260510095141 | 38 | 100 | 1.0 | 3.0 | 0.00 | 0.00 | 0.00 | 76 | 1014.7 |
| 20260510094640 | 38 | 108 | 1.0 | 2.0 | 0.00 | 0.00 | 0.00 | 75 | 1014.7 |
| 20260510094136 | 38 | 82 | 1.0 | 2.0 | 0.00 | 0.00 | 0.00 | 74 | 1014.6 |
| 20260510093632 | 39 | 113 | 1.0 | 3.0 | 0.00 | 0.00 | 0.00 | 73 | 1014.6 |
| 20260510093130 | 39 | 102 | 1.0 | 2.0 | 0.00 | 0.00 | 0.00 | 74 | 1014.4 |
| 20260510092626 | 39 | 96 | 1.0 | 3.0 | 0.00 | 0.00 | 0.00 | 73 | 1014.4 |
| 20260510092121 | 39 | 113 | 1.0 | 2.0 | 0.00 | 0.00 | 0.00 | 72 | 1014.2 |
| 20260510091618 | 39 | 99 | 1.0 | 2.0 | 0.00 | 0.00 | 0.00 | 72 | 1014.4 |
| 20260510091114 | 39 | 69 | 2.0 | 2.0 | 0.00 | 0.00 | 0.00 | 72 | 1014.3 |
| 20260510090611 | 39 | 58 | 0.0 | 2.0 | 0.00 | 0.00 | 0.00 | 73 | 1014.3 |
| 20260510090107 | 38 | 132 | 2.0 | 2.0 | 0.00 | 0.00 | 0.00 | 74 | 1014.1 |
| 20260510085602 | 39 | 105 | 0.0 | 2.0 | 0.00 | 0.00 | 0.00 | 72 | 1013.8 |
| 20260510085058 | 39 | 84 | 1.0 | 2.0 | 0.00 | 0.00 | 0.00 | 71 | 1013.9 |
| 20260510084554 | 39 | 71 | 0.0 | 2.0 | 0.00 | 0.00 | 0.00 | 70 | 1013.9 |
| 20260510084051 | 40 | 72 | 1.0 | 2.0 | 0.00 | 0.00 | 0.00 | 69 | 1013.7 |
| 20260510083548 | 40 | 119 | 0.0 | 2.0 | 0.00 | 0.00 | 0.00 | 68 | 1013.4 |
| 20260510083044 | 41 | 80 | 1.0 | 3.0 | 0.00 | 0.00 | 0.00 | 68 | 1013.6 |
| 20260510082541 | 41 | 88 | 2.0 | 2.0 | 0.00 | 0.00 | 0.00 | 66 | 1013.6 |
| 20260510082037 | 41 | 88 | 2.0 | 3.0 | 0.00 | 0.00 | 0.00 | 66 | 1013.8 |
| 20260510081532 | 42 | 108 | 2.0 | 2.0 | 0.00 | 0.00 | 0.00 | 65 | 1013.3 |
| 20260510081028 | 42 | 340 | 2.0 | 5.0 | 0.00 | 0.00 | 0.00 | 63 | 1013.3 |
| 20260510080527 | 43 | 356 | 2.0 | 6.0 | 0.00 | 0.00 | 0.00 | 63 | 1013.2 |
| 20260510080024 | 42 | 350 | 2.0 | 5.0 | 0.00 | 0.00 | 0.00 | 63 | 1013.3 |
| 20260510075521 | 43 | 70 | 2.0 | 4.0 | 0.00 | 0.00 | 0.00 | 63 | 1013.1 |
| 20260510075018 | 43 | 331 | 2.0 | 3.0 | 0.00 | 0.00 | 0.00 | 63 | 1013.2 |
| 20260510074516 | 43 | 0 | 0.0 | 3.0 | 0.00 | 0.00 | 0.00 | 63 | 1012.8 |
| 20260510074011 | 44 | 350 | 2.0 | 3.0 | 0.00 | 0.00 | 0.00 | 61 | 1012.8 |
| 20260510073507 | 44 | 66 | 2.0 | 3.0 | 0.00 | 0.00 | 0.00 | 61 | 1012.7 |
| 20260510073004 | 44 | 353 | 3.0 | 8.0 | 0.00 | 0.00 | 0.00 | 61 | 1012.7 |
| 20260510072501 | 44 | 72 | 2.0 | 4.0 | 0.00 | 0.00 | 0.00 | 62 | 1012.7 |
| 20260510071956 | 44 | 333 | 2.0 | 5.0 | 0.00 | 0.00 | 0.00 | 62 | 1012.5 |
| 20260510071452 | 44 | 332 | 4.0 | 7.0 | 0.00 | 0.00 | 0.00 | 62 | 1012.5 |
| 20260510070951 | 45 | 354 | 2.0 | 5.0 | 0.00 | 0.00 | 0.00 | 62 | 1012.2 |
| 20260510070448 | 45 | 38 | 1.0 | 7.0 | 0.00 | 0.00 | 0.00 | 62 | 1012.1 |
| 20260510065943 | 45 | 51 | 3.0 | 12.0 | 0.00 | 0.00 | 0.00 | 63 | 1012.2 |
| 20260510065441 | 45 | 331 | 3.0 | 3.0 | 0.00 | 0.00 | 0.00 | 65 | 1012.1 |
| 20260510064936 | 45 | 344 | 2.0 | 5.0 | 0.00 | 0.00 | 0.00 | 65 | 1012.1 |
| 20260510064434 | 45 | 37 | 3.0 | 5.0 | 0.00 | 0.00 | 0.00 | 66 | 1012.1 |
| 20260510063931 | 45 | 41 | 0.0 | 2.0 | 0.00 | 0.00 | 0.00 | 66 | 1012.0 |
| 20260510063426 | 46 | 34 | 1.0 | 4.0 | 0.00 | 0.00 | 0.00 | 64 | 1011.9 |
| 20260510062924 | 46 | 11 | 3.0 | 5.0 | 0.00 | 0.00 | 0.00 | 64 | 1011.9 |
| 20260510062419 | 46 | 354 | 3.0 | 5.0 | 0.00 | 0.00 | 0.00 | 64 | 1011.9 |
| 20260510061915 | 46 | 324 | 3.0 | 4.0 | 0.00 | 0.00 | 0.00 | 66 | 1011.6 |
| 20260510061412 | 46 | 72 | 2.0 | 3.0 | 0.00 | 0.00 | 0.00 | 65 | 1011.4 |
| 20260510060908 | 46 | 60 | 2.0 | 4.0 | 0.00 | 0.00 | 0.00 | 65 | 1011.3 |
| 20260510060405 | 47 | 31 | 2.0 | 3.0 | 0.00 | 0.00 | 0.00 | 65 | 1011.5 |
| 20260510055901 | 48 | 332 | 4.0 | 4.0 | 0.00 | 0.00 | 0.00 | 62 | 1011.3 |
| 20260510055401 | 48 | 56 | 3.0 | 6.0 | 0.00 | 0.00 | 0.00 | 63 | 1011.3 |
| 20260510054854 | 48 | 11 | 3.0 | 6.0 | 0.00 | 0.00 | 0.00 | 63 | 1011.1 |
| 20260510054350 | 48 | 47 | 7.0 | 11.0 | 0.00 | 0.00 | 0.00 | 63 | 1011.1 |
| 20260510053845 | 48 | 338 | 3.0 | 7.0 | 0.00 | 0.00 | 0.00 | 64 | 1011.1 |
| 20260510053341 | 48 | 45 | 3.0 | 6.0 | 0.00 | 0.00 | 0.00 | 64 | 1011.0 |
| 20260510052838 | 49 | 41 | 4.0 | 5.0 | 0.00 | 0.00 | 0.00 | 64 | 1011.0 |
| 20260510052333 | 49 | 64 | 3.0 | 7.0 | 0.00 | 0.00 | 0.00 | 64 | 1010.8 |
| 20260510051830 | 48 | 11 | 2.0 | 4.0 | 0.00 | 0.00 | 0.00 | 66 | 1010.8 |
| 20260510051327 | 48 | 29 | 2.0 | 5.0 | 0.00 | 0.00 | 0.00 | 66 | 1010.7 |
| 20260510050824 | 48 | 76 | 2.0 | 3.0 | 0.00 | 0.00 | 0.00 | 68 | 1010.7 |
| 20260510050320 | 48 | 44 | 3.0 | 3.0 | 0.00 | 0.00 | 0.00 | 69 | 1010.6 |
| 20260510045818 | 47 | 88 | 2.0 | 3.0 | 0.00 | 0.00 | 0.00 | 71 | 1010.3 |
| 20260510045314 | 46 | 94 | 2.0 | 2.0 | 0.00 | 0.00 | 0.00 | 72 | 1010.4 |
| 20260510044811 | 46 | 92 | 1.0 | 2.0 | 0.00 | 0.00 | 0.00 | 72 | 1010.2 |
| 20260510044308 | 47 | 124 | 1.0 | 2.0 | 0.00 | 0.00 | 0.00 | 72 | 1010.1 |
| 20260510043804 | 47 | 96 | 1.0 | 2.0 | 0.00 | 0.00 | 0.00 | 71 | 1010.1 |
| 20260510043301 | 47 | 84 | 2.0 | 2.0 | 0.00 | 0.00 | 0.00 | 71 | 1009.8 |
| 20260510042758 | 48 | 89 | 1.0 | 2.0 | 0.00 | 0.00 | 0.00 | 70 | 1009.5 |
| 20260510042254 | 48 | 78 | 1.0 | 2.0 | 0.00 | 0.00 | 0.00 | 70 | 1009.6 |
| 20260510041750 | 49 | 75 | 0.0 | 2.0 | 0.00 | 0.00 | 0.00 | 68 | 1009.6 |
| 20260510041248 | 49 | 70 | 1.0 | 2.0 | 0.00 | 0.00 | 0.00 | 65 | 1009.5 |
| 20260510040745 | 50 | 97 | 1.0 | 2.0 | 0.00 | 0.00 | 0.00 | 64 | 1009.5 |
| 20260510040242 | 50 | 89 | 2.0 | 2.0 | 0.00 | 0.00 | 0.00 | 64 | 1009.5 |
| 20260510035737 | 51 | 89 | 2.0 | 3.0 | 0.00 | 0.10 | 0.10 | 64 | 1009.3 |
| 20260510035227 | 51 | 95 | 2.0 | 3.0 | 0.00 | 0.10 | 0.10 | 63 | 1009.1 |
| 20260510034723 | 51 | 124 | 1.0 | 2.0 | 0.00 | 0.10 | 0.10 | 63 | 1009.2 |
| 20260510034222 | 51 | 104 | 0.0 | 1.0 | 0.00 | 0.10 | 0.10 | 62 | 1009.0 |
| 20260510033717 | 51 | 67 | 2.0 | 3.0 | 0.00 | 0.10 | 0.10 | 62 | 1009.0 |
| 20260510033216 | 52 | 56 | 1.0 | 2.0 | 0.00 | 0.10 | 0.10 | 61 | 1009.0 |
| 20260510032711 | 53 | 62 | 0.0 | 3.0 | 0.00 | 0.10 | 0.10 | 59 | 1009.0 |
| 20260510032207 | 53 | 88 | 1.0 | 3.0 | 0.00 | 0.10 | 0.10 | 58 | 1009.0 |
| 20260510031702 | 54 | 31 | 1.0 | 5.0 | 0.00 | 0.10 | 0.10 | 58 | 1008.6 |
| 20260510031159 | 54 | 19 | 2.0 | 3.0 | 0.00 | 0.10 | 0.10 | 57 | 1008.6 |
| 20260510030658 | 54 | 329 | 3.0 | 4.0 | 0.00 | 0.10 | 0.10 | 56 | 1008.6 |
| 20260510030156 | 53 | 15 | 0.0 | 6.0 | 0.00 | 0.10 | 0.10 | 58 | 1008.5 |
| 20260510025653 | 53 | 96 | 2.0 | 2.0 | 0.00 | 0.10 | 0.10 | 59 | 1008.4 |
| 20260510025150 | 54 | 139 | 0.0 | 2.0 | 0.00 | 0.10 | 0.10 | 58 | 1008.5 |
| 20260510024648 | 55 | 101 | 1.0 | 2.0 | 0.00 | 0.10 | 0.10 | 57 | 1008.3 |
| 20260510024144 | 55 | 323 | 3.0 | 5.0 | 0.00 | 0.10 | 0.10 | 55 | 1008.4 |
| 20260510023639 | 55 | 347 | 1.0 | 5.0 | 0.00 | 0.10 | 0.10 | 55 | 1008.3 |
| 20260510023137 | 55 | 322 | 3.0 | 4.0 | 0.00 | 0.10 | 0.10 | 54 | 1008.2 |
| 20260510022637 | 56 | 358 | 3.0 | 9.0 | 0.00 | 0.10 | 0.10 | 54 | 1008.0 |
| 20260510022132 | 56 | 24 | 5.0 | 6.0 | 0.00 | 0.10 | 0.10 | 54 | 1008.1 |
| 20260510021627 | 56 | 42 | 2.0 | 7.0 | 0.00 | 0.10 | 0.10 | 53 | 1007.9 |
| 20260510021126 | 57 | 335 | 5.0 | 11.0 | 0.00 | 0.10 | 0.10 | 52 | 1008.0 |
| 20260510020620 | 57 | 53 | 5.0 | 7.0 | 0.00 | 0.10 | 0.10 | 52 | 1007.8 |
| 20260510020116 | 57 | 332 | 0.0 | 6.0 | 0.00 | 0.10 | 0.10 | 52 | 1007.6 |
| 20260510015612 | 57 | 307 | 5.0 | 6.0 | 0.00 | 0.10 | 0.10 | 50 | 1007.3 |
| 20260510015108 | 57 | 324 | 4.0 | 5.0 | 0.00 | 0.10 | 0.10 | 51 | 1007.3 |
| 20260510014603 | 57 | 358 | 3.0 | 4.0 | 0.00 | 0.10 | 0.10 | 51 | 1007.3 |
| 20260510014101 | 57 | 309 | 4.0 | 5.0 | 0.00 | 0.10 | 0.10 | 50 | 1007.0 |
| 20260510013555 | 58 | 338 | 5.0 | 11.0 | 0.00 | 0.10 | 0.10 | 49 | 1006.9 |
| 20260510013051 | 58 | 3 | 2.0 | 10.0 | 0.00 | 0.10 | 0.10 | 49 | 1006.8 |
| 20260510012545 | 58 | 327 | 4.0 | 11.0 | 0.00 | 0.10 | 0.10 | 48 | 1006.5 |
| 20260510012042 | 59 | 89 | 4.0 | 8.0 | 0.00 | 0.10 | 0.10 | 47 | 1006.2 |
| 20260510011541 | 59 | 26 | 7.0 | 12.0 | 0.00 | 0.10 | 0.10 | 47 | 1006.2 |
| 20260510011037 | 60 | 17 | 5.0 | 12.0 | 0.00 | 0.10 | 0.10 | 46 | 1005.9 |
| 20260510010534 | 60 | 27 | 2.0 | 9.0 | 0.00 | 0.10 | 0.10 | 47 | 1005.7 |
| 20260510010032 | 61 | 34 | 4.0 | 11.0 | 0.00 | 0.10 | 0.10 | 46 | 1005.6 |
| 20260510005527 | 61 | 351 | 1.0 | 4.0 | 0.00 | 0.10 | 0.10 | 48 | 1005.3 |
| 20260510005025 | 61 | 337 | 2.0 | 5.0 | 0.00 | 0.10 | 0.10 | 50 | 1005.2 |
| 20260510004522 | 62 | 330 | 3.0 | 5.0 | 0.00 | 0.10 | 0.10 | 48 | 1005.2 |
| 20260510004020 | 62 | 194 | 3.0 | 6.0 | 0.00 | 0.10 | 0.10 | 49 | 1005.1 |
| 20260510003516 | 61 | 335 | 2.0 | 4.0 | 0.00 | 0.10 | 0.10 | 51 | 1004.9 |
| 20260510003012 | 62 | 149 | 2.0 | 4.0 | 0.00 | 0.10 | 0.10 | 51 | 1004.7 |
| 20260510002508 | 62 | 303 | 2.0 | 5.0 | 0.00 | 0.10 | 0.10 | 50 | 1004.7 |
| 20260510002005 | 62 | 156 | 2.0 | 3.0 | 0.00 | 0.10 | 0.10 | 50 | 1004.7 |
| 20260510001502 | 62 | 58 | 0.0 | 3.0 | 0.00 | 0.10 | 0.10 | 49 | 1004.5 |
| 20260510001000 | 62 | 12 | 3.0 | 4.0 | 0.00 | 0.10 | 0.10 | 49 | 1004.5 |
| 20260510000456 | 63 | 295 | 2.0 | 5.0 | 0.00 | 0.10 | 0.10 | 50 | 1004.5 |
| 20260509235952 | 63 | 14 | 2.0 | 7.0 | 0.00 | 0.10 | 0.10 | 48 | 1004.3 |
| 20260509235449 | 63 | 165 | 2.0 | 7.0 | 0.00 | 0.10 | 0.10 | 48 | 1004.2 |
| 20260509234945 | 62 | 133 | 0.0 | 5.0 | 0.00 | 0.10 | 0.10 | 50 | 1004.1 |
| 20260509234442 | 63 | 128 | 2.0 | 3.0 | 0.00 | 0.10 | 0.10 | 51 | 1004.1 |
| 20260509233940 | 63 | 213 | 0.0 | 5.0 | 0.00 | 0.10 | 0.10 | 50 | 1004.1 |
| 20260509233437 | 64 | 232 | 0.0 | 2.0 | 0.00 | 0.10 | 0.10 | 48 | 1004.0 |
| 20260509232933 | 64 | 278 | 0.0 | 3.0 | 0.00 | 0.10 | 0.10 | 48 | 1003.9 |
| 20260509232431 | 64 | 124 | 0.0 | 7.0 | 0.00 | 0.10 | 0.10 | 47 | 1003.9 |
| 20260509231927 | 64 | 187 | 3.0 | 4.0 | 0.00 | 0.10 | 0.10 | 47 | 1003.8 |
| 20260509231424 | 65 | 268 | 5.0 | 6.0 | 0.00 | 0.10 | 0.10 | 46 | 1004.0 |